RH
85 80 87 85 74 68 64 75 61 55 58 54 43 36 39 39 38 39 41 86 86 81 74 75 74 74 73 73 74 74 75 76 75 74 76 70 74 76 76 76 75 73 73
56 61 64 64 62 70 63 57 58 60 52 60 52 42 38 40 37 37 38 56 88 86 82 75 77 72 72 72 73 75 80 80 78 77 78 72 74 77 72 75 76 75 72
49 50 56 59 55 53 55 70 60 60 65 72 56 50 49 42 39 36 37 39 60 90 87 78 74 76 75 74 71 73 78 82 83 80 79 74 71 71 71 69 69 67 70
48 48 50 54 53 55 53 57 66 73 77 78 80 66 55 55 51 41 35 33 39 38 75 78 81 78 78 74 74 71 76 79 84 86 81 78 72 70 69 68 66 66 65
46 45 46 48 48 55 60 70 75 75 82 83 79 74 73 68 53 40 36 34 35 40 41 70 81 82 83 80 72 69 71 77 82 86 85 80 73 70 68 66 66 65 64
45 47 48 49 48 53 57 70 73 76 81 80 88 85 83 77 70 53 42 36 36 38 42 47 62 68 86 81 75 70 70 74 79 84 85 81 75 70 68 67 67 66 64
51 53 53 52 52 54 55 56 64 73 77 83 94 92 90 81 75 73 65 50 44 42 44 46 50 52 57 82 80 77 72 71 75 81 84 81 76 71 69 68 67 66 70
60 58 61 62 60 61 59 63 66 74 73 74 84 84 91 88 79 67 59 54 50 47 48 50 48 51 57 57 74 84 78 69 68 74 82 80 77 72 70 68 68 67 72
66 74 72 72 67 68 71 71 73 74 82 80 80 81 95 87 69 64 64 56 50 52 51 50 50 50 53 58 73 79 86 82 74 73 75 79 78 74 71 69 69 68 72
77 83 88 83 76 78 80 78 76 80 82 88 85 88 84 88 86 79 59 56 51 49 49 56 52 54 59 65 70 76 85 92 82 73 72 76 79 76 73 70 70 68 71
80 83 88 90 91 82 80 82 84 86 87 89 88 89 91 88 91 94 83 73 65 49 52 56 65 66 62 75 88 91 98 97 86 82 76 71 78 78 74 71 70 69 71
88 85 86 91 92 93 86 84 86 87 90 92 94 94 92 92 93 92 98 95 94 91 92 90 86 88 93 94 93 94 92 92 90 87 84 80 73 79 79 76 74 72 71
92 92 91 93 93 93 93 94 91 89 89 92 94 95 92 91 87 84 90 93 95 94 94 95 87 85 85 90 89 96 96 95 94 86 84 82 77 82 85 80 76 73 71
86 84 89 91 89 90 92 93 96 96 99 99 99 99 97 96 98 97 97 97 99 98 94 88 91 92 92 95 92 95 94 96 95 92 88 84 80 84 86 86 82 83 74
57 63 74 85 88 88 91 92 94 95 94 96 97 98 98 96 96 95 94 93 94 94 92 87 85 91 91 92 92 92 94 93 95 93 93 89 86 92 95 94 90 95 86
39 41 45 52 63 74 84 90 90 88 90 94 94 94 95 95 95 96 95 93 94 92 93 89 88 88 97 98 96 97 96 97 96 95 93 92 93 96 95 93 94 93 89
30 30 32 33 37 40 43 54 66 74 78 85 89 93 92 93 95 96 96 97 96 94 95 87 92 97 99 99 99 99 98 98 96 96 95 93 93 93 96 96 96 93 89
27 29 32 33 32 37 41 41 41 43 45 50 55 71 78 78 91 93 95 96 96 96 98 98 95 100 99 99 99 99 99 99 98 96 97 94 94 96 97 96 94 91 90
27 27 28 31 34 33 33 38 42 42 43 44 47 53 57 63 73 79 84 91 93 94 98 99 99 99 99 99 99 99 99 99 99 99 98 98 98 98 96 94 92 91 90
30 30 29 28 30 29 30 42 44 44 44 46 44 47 49 59 67 78 79 82 79 86 90 98 99 99 99 99 99 99 99 99 99 99 99 98 98 97 96 94 93 91 90
28 29 29 30 30 29 31 49 50 48 45 46 47 42 49 65 75 76 73 80 82 90 87 92 96 99 99 99 99 98 99 99 99 99 99 99 98 98 97 93 92 92 90
32 32 33 32 34 25 45 52 54 49 43 44 47 48 47 60 56 60 64 71 72 82 92 92 89 89 96 98 96 99 99 99 99 98 99 99 97 98 96 92 89 90 89
33 36 35 34 34 33 42 51 56 46 44 44 49 52 49 38 60 46 54 60 66 68 72 82 94 88 88 87 95 98 99 98 95 97 98 98 99 98 94 90 90 90 88
38 38 39 39 41 38 47 51 54 50 45 47 51 47 44 43 51 51 57 61 59 61 63 66 77 83 89 89 91 94 96 94 96 99 96 98 99 99 98 95 92 91 89
48 53 47 48 50 51 51 55 52 53 53 47 38 37 39 45 52 57 64 72 59 54 51 65 75 78 80 82 89 96 98 100 99 99 99 98 99 100 99 99 98 92 90
51 53 53 52 51 53 48 44 50 53 52 42 39 38 50 46 52 58 65 65 67 62 60 65 64 68 70 75 81 92 97 99 98 100 98 98 99 98 100 97 98 97 93
Wind_Speed
2 4 4 5 4 7 8 7 9 10 12 13 13 13 13 12 12 6 5 14 14 14 16 15 17 16 16 15 15 14 14 13 12 10 8 6 7 7 6 8 7 6 6
6 6 6 7 7 5 8 7 9 8 10 12 13 13 13 9 12 11 7 8 14 15 16 16 16 16 17 17 17 16 15 16 15 13 11 9 7 7 6 3 3 3 4
8 8 7 6 7 8 11 6 8 7 8 5 11 12 9 14 9 11 9 7 8 13 15 18 18 18 17 19 18 17 16 15 15 16 14 12 10 9 8 7 6 4 4
10 8 7 6 7 7 8 9 8 8 9 8 8 9 8 7 8 12 11 9 8 7 13 18 18 18 17 17 18 18 17 16 14 16 16 14 13 11 10 8 6 5 5
11 10 8 7 9 7 7 7 8 10 8 7 8 9 9 8 11 10 11 11 10 8 7 13 17 17 16 17 18 18 18 15 15 17 17 16 15 13 11 9 8 6 5
11 9 9 9 9 8 7 8 11 10 10 8 7 10 10 9 9 9 9 8 8 11 9 9 6 8 15 18 19 20 20 16 15 16 19 17 17 15 13 12 9 7 6
10 9 8 10 10 10 11 12 11 13 11 9 6 9 9 10 11 7 4 8 9 10 9 10 8 6 6 17 19 21 21 20 18 17 20 18 18 17 15 13 11 9 5
9 10 10 9 11 9 13 13 14 10 10 10 8 9 7 8 11 14 13 11 14 10 9 9 7 10 8 7 10 18 21 24 23 20 20 20 19 19 17 15 13 11 8
9 9 13 12 13 12 10 13 14 16 11 10 14 8 4 8 7 11 17 14 15 11 10 11 11 12 10 9 8 10 18 21 23 24 22 22 21 21 19 17 16 14 12
10 10 11 12 14 12 14 13 13 13 12 12 9 12 16 2 4 4 11 14 14 14 13 9 11 11 8 9 13 12 10 17 22 25 25 25 23 23 21 19 18 17 15
10 11 12 12 12 13 15 15 14 12 10 10 11 8 12 14 9 1 4 4 5 10 9 8 6 5 6 7 3 3 8 9 17 21 23 24 25 25 24 22 21 19 17
7 10 12 11 11 12 14 12 13 13 12 11 10 10 8 7 8 7 4 3 3 2 1 1 2 2 4 5 7 9 10 12 15 18 21 24 25 26 26 25 23 22 20
7 8 10 11 10 12 13 13 12 11 12 11 12 9 8 7 6 9 8 5 5 3 3 5 4 6 7 5 8 11 8 10 14 19 24 27 26 25 25 26 26 25 22
5 8 9 9 11 12 13 13 10 10 5 4 5 4 4 5 3 3 2 3 3 5 3 4 1 4 4 5 6 9 8 14 16 21 23 27 28 24 23 24 24 23 22
4 8 7 7 9 11 11 11 10 11 11 12 11 7 4 4 4 6 6 6 6 6 7 5 7 7 7 6 10 10 10 14 19 21 26 26 22 15 18 19 17 14 15
9 8 9 9 10 8 9 9 8 9 11 8 8 10 9 8 6 6 7 7 8 9 9 4 7 8 7 7 8 9 8 11 13 18 22 24 22 17 18 20 22 18 15
9 11 10 10 11 11 11 9 9 9 9 8 8 9 9 8 6 6 6 5 8 9 11 9 5 4 6 6 4 4 6 7 7 14 21 23 21 22 21 21 19 18 17
8 9 9 9 10 9 9 10 10 9 9 10 9 7 5 4 5 6 6 7 7 9 7 7 3 4 5 4 3 4 5 5 7 11 18 22 24 24 23 23 21 19 16
9 9 8 8 8 10 10 10 10 10 9 9 9 9 10 10 10 9 6 6 6 5 6 5 3 2 2 1 1 2 3 4 4 7 11 12 12 14 17 21 20 19 17
10 10 10 10 9 9 8 10 11 10 8 8 9 8 8 9 10 10 9 9 8 7 6 4 4 2 1 0 1 3 4 3 4 2 7 10 14 18 21 23 23 21 18
9 9 10 9 9 8 6 10 11 10 10 9 8 8 8 8 9 7 6 7 8 7 7 6 5 1 1 1 3 3 5 2 3 2 4 5 7 8 10 17 15 19 19
11 11 11 11 11 9 14 16 14 11 11 10 8 7 8 9 8 14 11 9 8 8 7 6 6 7 5 3 4 3 3 2 3 4 4 6 8 8 9 10 18 21 20
10 9 10 10 10 10 12 15 16 10 10 10 10 9 9 7 7 8 11 15 12 11 9 8 8 8 9 8 6 5 6 5 7 3 7 8 5 8 8 9 22 23 23
10 10 10 10 9 9 13 14 15 10 9 10 9 9 9 9 9 10 9 10 10 10 8 5 6 8 7 9 10 10 8 11 4 2 8 7 4 4 6 7 23 24 23
9 9 9 10 10 10 16 16 14 9 9 10 9 9 8 8 11 11 9 10 11 10 9 11 10 12 14 16 12 8 8 6 4 4 7 4 3 2 2 3 10 23 23
9 8 9 10 13 10 14 13 12 7 9 8 9 9 12 11 11 12 9 9 10 9 9 11 11 11 12 11 14 8 6 9 8 2 5 8 4 5 2 3 3 9 10
Wind_Direction
233 246 273 292 277 217 236 213 215 223 220 230 219 226 225 220 224 228 235 174 185 212 231 236 224 222 228 230 231 232 233 232 232 230 229 241 237 230 249 252 246 253 260
209 211 237 256 265 272 264 221 218 233 245 218 227 215 227 228 235 228 232 185 189 202 226 236 239 233 231 232 234 236 236 233 230 229 225 224 221 215 226 213 218 237 275
234 239 251 263 263 253 261 272 260 238 243 263 243 230 212 225 224 233 239 236 189 205 214 232 239 240 237 235 235 238 240 236 233 223 223 223 222 222 227 236 228 246 264
246 250 258 255 250 264 256 243 241 243 244 248 247 246 231 228 230 228 230 231 228 225 207 222 228 237 241 245 239 240 240 237 229 217 218 219 219 222 222 232 239 244 262
247 248 250 258 261 254 256 269 265 247 242 231 238 239 239 226 222 234 232 223 226 226 227 198 212 222 231 238 244 247 247 236 231 215 214 214 219 218 222 226 234 241 257
243 247 253 257 260 257 249 240 252 253 244 234 227 233 226 227 233 238 232 237 219 230 226 230 197 213 225 230 237 244 249 242 234 223 215 215 219 218 219 223 224 230 244
260 263 262 261 258 258 257 250 242 237 234 229 232 236 234 236 224 219 226 243 235 239 233 220 199 230 217 219 228 234 237 242 234 225 220 216 220 219 220 223 218 219 228
268 270 267 265 261 259 254 248 249 245 244 230 228 240 246 223 229 220 222 217 224 223 235 250 223 219 220 233 210 224 232 235 234 226 220 216 220 221 220 220 216 215 204
261 252 262 264 263 258 252 250 244 240 243 233 225 221 226 236 231 205 217 218 217 217 212 224 220 227 224 231 228 216 220 230 230 227 220 218 217 221 220 217 214 215 206
358 354 339 304 262 253 248 247 248 241 239 239 232 224 232 245 251 240 213 213 220 218 217 211 221 219 211 229 231 231 209 211 230 228 226 218 216 217 219 217 215 215 205
8 3 340 330 294 273 258 252 249 243 243 242 238 231 234 226 227 266 245 235 213 221 215 208 215 221 225 239 235 252 246 234 233 246 242 239 223 218 216 216 218 218 205
357 4 342 344 343 337 279 258 251 242 237 235 234 223 209 216 214 213 219 229 198 174 342 290 140 115 214 202 217 234 237 230 212 230 244 251 240 227 213 216 216 213 208
355 346 342 359 340 357 347 351 263 245 249 235 231 228 222 227 228 222 206 203 225 190 193 193 177 198 214 200 217 214 224 245 239 239 248 247 247 230 220 215 216 211 205
353 349 357 353 347 8 4 1 11 4 310 258 252 226 207 215 188 198 204 189 198 210 216 230 179 228 208 200 202 206 215 217 228 242 251 249 244 233 223 215 218 214 197
352 2 4 351 360 6 12 8 8 0 2 14 14 337 242 217 213 219 218 220 236 240 232 222 220 197 212 209 213 216 225 227 220 234 243 248 245 228 210 212 208 190 189
14 7 12 4 13 11 9 11 10 2 15 5 8 1 359 6 282 221 211 213 212 232 251 207 211 207 190 209 214 217 232 239 238 234 238 242 236 203 197 188 167 173 174
9 6 8 5 8 7 1 12 11 1 2 357 4 357 351 352 344 358 354 266 224 221 243 249 229 182 189 210 220 224 229 230 242 235 238 241 225 195 174 166 161 164 169
5 8 3 1 359 2 358 2 356 353 354 351 353 343 332 345 329 7 4 343 342 352 256 245 249 200 196 206 206 211 232 243 240 243 235 238 209 183 168 160 155 159 164
354 356 358 354 351 350 351 358 351 346 343 346 345 346 346 351 358 354 350 342 341 337 340 328 264 171 147 126 290 306 265 251 241 243 231 188 157 154 148 147 152 160 168
342 346 344 341 341 342 358 350 342 335 335 339 339 336 345 354 349 337 344 340 332 326 325 324 326 308 236 148 177 233 263 239 252 250 212 187 170 164 160 161 163 169 167
333 335 334 336 336 334 12 346 336 327 325 321 324 335 332 344 310 316 325 327 324 328 318 310 303 262 210 226 208 210 239 229 221 218 203 184 172 173 176 170 166 168 167
333 333 333 331 331 329 341 340 341 328 319 320 320 322 321 308 334 321 312 314 309 308 305 302 303 292 284 217 223 206 212 158 265 200 197 209 189 183 180 176 177 170 172
315 311 308 309 307 310 320 324 325 317 309 304 314 315 313 312 310 317 330 323 314 291 289 307 301 286 289 288 288 235 207 205 233 204 206 212 206 196 189 186 179 174 175
314 314 310 309 307 304 309 307 313 301 301 297 294 290 289 300 314 326 330 315 311 300 287 272 285 302 306 317 306 306 264 232 238 152 206 222 165 223 187 188 187 176 177
308 304 305 305 305 301 310 313 313 307 296 293 292 293 298 299 294 320 311 305 305 305 307 301 265 271 280 288 272 289 284 247 231 222 199 150 193 134 190 192 187 181 176
306 306 304 298 295 291 288 306 320 304 298 297 299 295 293 290 295 306 305 301 296 293 303 315 307 300 290 281 274 252 273 253 239 207 205 185 162 148 195 249 179 185 175